Index of /20260424/WXO-DD/model_gdps/15km/12/117
Name Last modified Size Description
Parent Directory -
20260424T12Z_MSC_GDPS_AbsoluteVorticity_IsbL-0200_LatLon0.15_PT117H.grib2 2026-04-24 16:27 1.5M
20260424T12Z_MSC_GDPS_AbsoluteVorticity_IsbL-0250_LatLon0.15_PT117H.grib2 2026-04-24 16:27 1.3M
20260424T12Z_MSC_GDPS_AbsoluteVorticity_IsbL-0500_LatLon0.15_PT117H.grib2 2026-04-24 16:27 1.4M
20260424T12Z_MSC_GDPS_AbsoluteVorticity_IsbL-0700_LatLon0.15_PT117H.grib2 2026-04-24 16:27 1.3M
20260424T12Z_MSC_GDPS_AbsoluteVorticity_IsbL-0850_LatLon0.15_PT117H.grib2 2026-04-24 16:27 1.6M
20260424T12Z_MSC_GDPS_AirTemp_AGL-120m_LatLon0.15_PT117H.grib2 2026-04-24 16:27 911K
20260424T12Z_MSC_GDPS_AirTemp_AGL-2m_LatLon0.15_PT117H.grib2 2026-04-24 16:27 1.0M
20260424T12Z_MSC_GDPS_AirTemp_AGL-40m_LatLon0.15_PT117H.grib2 2026-04-24 16:27 809K
20260424T12Z_MSC_GDPS_AirTemp_AGL-80m_LatLon0.15_PT117H.grib2 2026-04-24 16:27 800K
20260424T12Z_MSC_GDPS_AirTemp_IsbL-0001_LatLon0.15_PT117H.grib2 2026-04-24 16:27 647K
20260424T12Z_MSC_GDPS_AirTemp_IsbL-0005_LatLon0.15_PT117H.grib2 2026-04-24 16:27 680K
20260424T12Z_MSC_GDPS_AirTemp_IsbL-0010_LatLon0.15_PT117H.grib2 2026-04-24 16:27 749K
20260424T12Z_MSC_GDPS_AirTemp_IsbL-0020_LatLon0.15_PT117H.grib2 2026-04-24 16:27 776K
20260424T12Z_MSC_GDPS_AirTemp_IsbL-0030_LatLon0.15_PT117H.grib2 2026-04-24 16:27 738K
20260424T12Z_MSC_GDPS_AirTemp_IsbL-0050_LatLon0.15_PT117H.grib2 2026-04-24 16:27 796K
20260424T12Z_MSC_GDPS_AirTemp_IsbL-0100_LatLon0.15_PT117H.grib2 2026-04-24 16:27 1.0M
20260424T12Z_MSC_GDPS_AirTemp_IsbL-0150_LatLon0.15_PT117H.grib2 2026-04-24 16:27 969K
20260424T12Z_MSC_GDPS_AirTemp_IsbL-0175_LatLon0.15_PT117H.grib2 2026-04-24 16:27 955K
20260424T12Z_MSC_GDPS_AirTemp_IsbL-0200_LatLon0.15_PT117H.grib2 2026-04-24 16:27 966K
20260424T12Z_MSC_GDPS_AirTemp_IsbL-0225_LatLon0.15_PT117H.grib2 2026-04-24 16:27 968K
20260424T12Z_MSC_GDPS_AirTemp_IsbL-0250_LatLon0.15_PT117H.grib2 2026-04-24 16:27 1.0M
20260424T12Z_MSC_GDPS_AirTemp_IsbL-0275_LatLon0.15_PT117H.grib2 2026-04-24 16:27 1.0M
20260424T12Z_MSC_GDPS_AirTemp_IsbL-0300_LatLon0.15_PT117H.grib2 2026-04-24 16:27 1.0M
20260424T12Z_MSC_GDPS_AirTemp_IsbL-0350_LatLon0.15_PT117H.grib2 2026-04-24 16:27 922K
20260424T12Z_MSC_GDPS_AirTemp_IsbL-0400_LatLon0.15_PT117H.grib2 2026-04-24 16:27 938K
20260424T12Z_MSC_GDPS_AirTemp_IsbL-0450_LatLon0.15_PT117H.grib2 2026-04-24 16:27 958K
20260424T12Z_MSC_GDPS_AirTemp_IsbL-0500_LatLon0.15_PT117H.grib2 2026-04-24 16:27 1.0M
20260424T12Z_MSC_GDPS_AirTemp_IsbL-0550_LatLon0.15_PT117H.grib2 2026-04-24 16:27 792K
20260424T12Z_MSC_GDPS_AirTemp_IsbL-0600_LatLon0.15_PT117H.grib2 2026-04-24 16:27 890K
20260424T12Z_MSC_GDPS_AirTemp_IsbL-0650_LatLon0.15_PT117H.grib2 2026-04-24 16:27 920K
20260424T12Z_MSC_GDPS_AirTemp_IsbL-0700_LatLon0.15_PT117H.grib2 2026-04-24 16:27 951K
20260424T12Z_MSC_GDPS_AirTemp_IsbL-0750_LatLon0.15_PT117H.grib2 2026-04-24 16:27 1.0M
20260424T12Z_MSC_GDPS_AirTemp_IsbL-0800_LatLon0.15_PT117H.grib2 2026-04-24 16:27 1.1M
20260424T12Z_MSC_GDPS_AirTemp_IsbL-0850_LatLon0.15_PT117H.grib2 2026-04-24 16:27 1.1M
20260424T12Z_MSC_GDPS_AirTemp_IsbL-0875_LatLon0.15_PT117H.grib2 2026-04-24 16:27 1.2M
20260424T12Z_MSC_GDPS_AirTemp_IsbL-0900_LatLon0.15_PT117H.grib2 2026-04-24 16:27 1.2M
20260424T12Z_MSC_GDPS_AirTemp_IsbL-0925_LatLon0.15_PT117H.grib2 2026-04-24 16:27 1.1M
20260424T12Z_MSC_GDPS_AirTemp_IsbL-0950_LatLon0.15_PT117H.grib2 2026-04-24 16:27 1.1M
20260424T12Z_MSC_GDPS_AirTemp_IsbL-0970_LatLon0.15_PT117H.grib2 2026-04-24 16:27 1.2M
20260424T12Z_MSC_GDPS_AirTemp_IsbL-0985_LatLon0.15_PT117H.grib2 2026-04-24 16:27 1.1M
20260424T12Z_MSC_GDPS_AirTemp_IsbL-1000_LatLon0.15_PT117H.grib2 2026-04-24 16:27 1.1M
20260424T12Z_MSC_GDPS_AirTemp_IsbL-1015_LatLon0.15_PT117H.grib2 2026-04-24 16:27 1.1M
20260424T12Z_MSC_GDPS_Albedo_Sfc_LatLon0.15_PT117H.grib2 2026-04-24 16:27 245K
20260424T12Z_MSC_GDPS_CAPE_Sfc_LatLon0.15_PT117H.grib2 2026-04-24 16:27 3.9M
20260424T12Z_MSC_GDPS_CIN_Sfc_LatLon0.15_PT117H.grib2 2026-04-24 16:27 3.0M
20260424T12Z_MSC_GDPS_CloudWater_EAtm_LatLon0.15_PT117H.grib2 2026-04-24 16:27 531K
20260424T12Z_MSC_GDPS_ConvectivePrecip-Accum_Sfc_LatLon0.15_PT117H.grib2 2026-04-24 16:27 3.5M
20260424T12Z_MSC_GDPS_DewPointDepression_AGL-2m_LatLon0.15_PT117H.grib2 2026-04-24 16:27 754K
20260424T12Z_MSC_GDPS_DewPointDepression_IsbL-0010_LatLon0.15_PT117H.grib2 2026-04-24 16:27 65K
20260424T12Z_MSC_GDPS_DewPointDepression_IsbL-0020_LatLon0.15_PT117H.grib2 2026-04-24 16:27 81K
20260424T12Z_MSC_GDPS_DewPointDepression_IsbL-0030_LatLon0.15_PT117H.grib2 2026-04-24 16:27 68K
20260424T12Z_MSC_GDPS_DewPointDepression_IsbL-0050_LatLon0.15_PT117H.grib2 2026-04-24 16:27 322K
20260424T12Z_MSC_GDPS_DewPointDepression_IsbL-0100_LatLon0.15_PT117H.grib2 2026-04-24 16:27 401K
20260424T12Z_MSC_GDPS_DewPointDepression_IsbL-0150_LatLon0.15_PT117H.grib2 2026-04-24 16:27 459K
20260424T12Z_MSC_GDPS_DewPointDepression_IsbL-0175_LatLon0.15_PT117H.grib2 2026-04-24 16:27 556K
20260424T12Z_MSC_GDPS_DewPointDepression_IsbL-0200_LatLon0.15_PT117H.grib2 2026-04-24 16:27 667K
20260424T12Z_MSC_GDPS_DewPointDepression_IsbL-0225_LatLon0.15_PT117H.grib2 2026-04-24 16:27 770K
20260424T12Z_MSC_GDPS_DewPointDepression_IsbL-0250_LatLon0.15_PT117H.grib2 2026-04-24 16:27 857K
20260424T12Z_MSC_GDPS_DewPointDepression_IsbL-0275_LatLon0.15_PT117H.grib2 2026-04-24 16:27 875K
20260424T12Z_MSC_GDPS_DewPointDepression_IsbL-0300_LatLon0.15_PT117H.grib2 2026-04-24 16:27 914K
20260424T12Z_MSC_GDPS_DewPointDepression_IsbL-0350_LatLon0.15_PT117H.grib2 2026-04-24 16:27 941K
20260424T12Z_MSC_GDPS_DewPointDepression_IsbL-0400_LatLon0.15_PT117H.grib2 2026-04-24 16:27 1.0M
20260424T12Z_MSC_GDPS_DewPointDepression_IsbL-0450_LatLon0.15_PT117H.grib2 2026-04-24 16:27 1.0M
20260424T12Z_MSC_GDPS_DewPointDepression_IsbL-0500_LatLon0.15_PT117H.grib2 2026-04-24 16:27 1.0M
20260424T12Z_MSC_GDPS_DewPointDepression_IsbL-0550_LatLon0.15_PT117H.grib2 2026-04-24 16:27 1.0M
20260424T12Z_MSC_GDPS_DewPointDepression_IsbL-0600_LatLon0.15_PT117H.grib2 2026-04-24 16:27 1.1M
20260424T12Z_MSC_GDPS_DewPointDepression_IsbL-0650_LatLon0.15_PT117H.grib2 2026-04-24 16:27 1.1M
20260424T12Z_MSC_GDPS_DewPointDepression_IsbL-0700_LatLon0.15_PT117H.grib2 2026-04-24 16:27 1.1M
20260424T12Z_MSC_GDPS_DewPointDepression_IsbL-0750_LatLon0.15_PT117H.grib2 2026-04-24 16:27 1.1M
20260424T12Z_MSC_GDPS_DewPointDepression_IsbL-0800_LatLon0.15_PT117H.grib2 2026-04-24 16:27 1.2M
20260424T12Z_MSC_GDPS_DewPointDepression_IsbL-0850_LatLon0.15_PT117H.grib2 2026-04-24 16:27 1.2M
20260424T12Z_MSC_GDPS_DewPointDepression_IsbL-0875_LatLon0.15_PT117H.grib2 2026-04-24 16:27 1.1M
20260424T12Z_MSC_GDPS_DewPointDepression_IsbL-0900_LatLon0.15_PT117H.grib2 2026-04-24 16:27 1.1M
20260424T12Z_MSC_GDPS_DewPointDepression_IsbL-0925_LatLon0.15_PT117H.grib2 2026-04-24 16:27 1.0M
20260424T12Z_MSC_GDPS_DewPointDepression_IsbL-0950_LatLon0.15_PT117H.grib2 2026-04-24 16:27 1.0M
20260424T12Z_MSC_GDPS_DewPointDepression_IsbL-0970_LatLon0.15_PT117H.grib2 2026-04-24 16:27 1.0M
20260424T12Z_MSC_GDPS_DewPointDepression_IsbL-0985_LatLon0.15_PT117H.grib2 2026-04-24 16:27 1.0M
20260424T12Z_MSC_GDPS_DewPointDepression_IsbL-1000_LatLon0.15_PT117H.grib2 2026-04-24 16:27 971K
20260424T12Z_MSC_GDPS_DewPointDepression_IsbL-1015_LatLon0.15_PT117H.grib2 2026-04-24 16:27 914K
20260424T12Z_MSC_GDPS_DewPoint_AGL-2m_LatLon0.15_PT117H.grib2 2026-04-24 16:27 612K
20260424T12Z_MSC_GDPS_DownwardLongwaveRadiationFlux-Accum_Sfc_LatLon0.15_PT117H.grib2 2026-04-24 16:27 795K
20260424T12Z_MSC_GDPS_DownwardShortwaveRadiationFlux-Accum_NTAtm_LatLon0.15_PT117H.grib2 2026-04-24 16:27 272K
20260424T12Z_MSC_GDPS_DownwardShortwaveRadiationFlux-Accum_Sfc_LatLon0.15_PT117H.grib2 2026-04-24 16:27 1.0M
20260424T12Z_MSC_GDPS_FreezingRain-Accum1h_Sfc_LatLon0.15_PT117H.grib2 2026-04-24 16:27 50K
20260424T12Z_MSC_GDPS_FreezingRain-Accum3h_Sfc_LatLon0.15_PT117H.grib2 2026-04-24 16:27 60K
20260424T12Z_MSC_GDPS_FreezingRain-Accum_Sfc_LatLon0.15_PT117H.grib2 2026-04-24 16:27 447K
20260424T12Z_MSC_GDPS_GeopotentialHeight_IsbL-0001_LatLon0.15_PT117H.grib2 2026-04-24 16:27 377K
20260424T12Z_MSC_GDPS_GeopotentialHeight_IsbL-0005_LatLon0.15_PT117H.grib2 2026-04-24 16:27 485K
20260424T12Z_MSC_GDPS_GeopotentialHeight_IsbL-0010_LatLon0.15_PT117H.grib2 2026-04-24 16:27 473K
20260424T12Z_MSC_GDPS_GeopotentialHeight_IsbL-0020_LatLon0.15_PT117H.grib2 2026-04-24 16:27 415K
20260424T12Z_MSC_GDPS_GeopotentialHeight_IsbL-0030_LatLon0.15_PT117H.grib2 2026-04-24 16:27 572K
20260424T12Z_MSC_GDPS_GeopotentialHeight_IsbL-0050_LatLon0.15_PT117H.grib2 2026-04-24 16:27 569K
20260424T12Z_MSC_GDPS_GeopotentialHeight_IsbL-0100_LatLon0.15_PT117H.grib2 2026-04-24 16:27 606K
20260424T12Z_MSC_GDPS_GeopotentialHeight_IsbL-0150_LatLon0.15_PT117H.grib2 2026-04-24 16:27 624K
20260424T12Z_MSC_GDPS_GeopotentialHeight_IsbL-0175_LatLon0.15_PT117H.grib2 2026-04-24 16:27 630K
20260424T12Z_MSC_GDPS_GeopotentialHeight_IsbL-0200_LatLon0.15_PT117H.grib2 2026-04-24 16:27 636K
20260424T12Z_MSC_GDPS_GeopotentialHeight_IsbL-0225_LatLon0.15_PT117H.grib2 2026-04-24 16:27 634K
20260424T12Z_MSC_GDPS_GeopotentialHeight_IsbL-0250_LatLon0.15_PT117H.grib2 2026-04-24 16:27 644K
20260424T12Z_MSC_GDPS_GeopotentialHeight_IsbL-0275_LatLon0.15_PT117H.grib2 2026-04-24 16:27 642K
20260424T12Z_MSC_GDPS_GeopotentialHeight_IsbL-0300_LatLon0.15_PT117H.grib2 2026-04-24 16:27 634K
20260424T12Z_MSC_GDPS_GeopotentialHeight_IsbL-0350_LatLon0.15_PT117H.grib2 2026-04-24 16:27 631K
20260424T12Z_MSC_GDPS_GeopotentialHeight_IsbL-0400_LatLon0.15_PT117H.grib2 2026-04-24 16:27 623K
20260424T12Z_MSC_GDPS_GeopotentialHeight_IsbL-0450_LatLon0.15_PT117H.grib2 2026-04-24 16:27 613K
20260424T12Z_MSC_GDPS_GeopotentialHeight_IsbL-0500_LatLon0.15_PT117H.grib2 2026-04-24 16:27 597K
20260424T12Z_MSC_GDPS_GeopotentialHeight_IsbL-0550_LatLon0.15_PT117H.grib2 2026-04-24 16:27 526K
20260424T12Z_MSC_GDPS_GeopotentialHeight_IsbL-0600_LatLon0.15_PT117H.grib2 2026-04-24 16:27 521K
20260424T12Z_MSC_GDPS_GeopotentialHeight_IsbL-0650_LatLon0.15_PT117H.grib2 2026-04-24 16:27 690K
20260424T12Z_MSC_GDPS_GeopotentialHeight_IsbL-0700_LatLon0.15_PT117H.grib2 2026-04-24 16:27 686K
20260424T12Z_MSC_GDPS_GeopotentialHeight_IsbL-0750_LatLon0.15_PT117H.grib2 2026-04-24 16:27 689K
20260424T12Z_MSC_GDPS_GeopotentialHeight_IsbL-0800_LatLon0.15_PT117H.grib2 2026-04-24 16:27 704K
20260424T12Z_MSC_GDPS_GeopotentialHeight_IsbL-0850_LatLon0.15_PT117H.grib2 2026-04-24 16:27 716K
20260424T12Z_MSC_GDPS_GeopotentialHeight_IsbL-0875_LatLon0.15_PT117H.grib2 2026-04-24 16:27 720K
20260424T12Z_MSC_GDPS_GeopotentialHeight_IsbL-0900_LatLon0.15_PT117H.grib2 2026-04-24 16:27 724K
20260424T12Z_MSC_GDPS_GeopotentialHeight_IsbL-0925_LatLon0.15_PT117H.grib2 2026-04-24 16:27 731K
20260424T12Z_MSC_GDPS_GeopotentialHeight_IsbL-0950_LatLon0.15_PT117H.grib2 2026-04-24 16:27 738K
20260424T12Z_MSC_GDPS_GeopotentialHeight_IsbL-0970_LatLon0.15_PT117H.grib2 2026-04-24 16:27 751K
20260424T12Z_MSC_GDPS_GeopotentialHeight_IsbL-0985_LatLon0.15_PT117H.grib2 2026-04-24 16:27 767K
20260424T12Z_MSC_GDPS_GeopotentialHeight_IsbL-1000_LatLon0.15_PT117H.grib2 2026-04-24 16:27 788K
20260424T12Z_MSC_GDPS_GeopotentialHeight_IsbL-1015_LatLon0.15_PT117H.grib2 2026-04-24 16:27 812K
20260424T12Z_MSC_GDPS_Humidex_Sfc_LatLon0.15_PT117H.grib2 2026-04-24 16:27 5.3M
20260424T12Z_MSC_GDPS_IcePellets-Accum1h_Sfc_LatLon0.15_PT117H.grib2 2026-04-24 16:27 12K
20260424T12Z_MSC_GDPS_IcePellets-Accum3h_Sfc_LatLon0.15_PT117H.grib2 2026-04-24 16:27 16K
20260424T12Z_MSC_GDPS_IcePellets-Accum_Sfc_LatLon0.15_PT117H.grib2 2026-04-24 16:27 152K
20260424T12Z_MSC_GDPS_KIndex_Sfc_LatLon0.15_PT117H.grib2 2026-04-24 16:27 6.5M
20260424T12Z_MSC_GDPS_LatentHeatNetFlux_Sfc_LatLon0.15_PT117H.grib2 2026-04-24 16:27 559K
20260424T12Z_MSC_GDPS_LiftedIndex-MU-VT_IsbL-0500_LatLon0.15_PT117H.grib2 2026-04-24 16:27 5.4M
20260424T12Z_MSC_GDPS_NetLongwaveRadiationFlux-Accum_Sfc_LatLon0.15_PT117H.grib2 2026-04-24 16:27 1.0M
20260424T12Z_MSC_GDPS_NetShortwaveRadiationFlux-Accum_Sfc_LatLon0.15_PT117H.grib2 2026-04-24 16:27 1.0M
20260424T12Z_MSC_GDPS_O3MixingRatio_LatLon0.15_PT117H.grib2 2026-04-24 16:51 2.2M
20260424T12Z_MSC_GDPS_O3_EAtm_LatLon0.15_PT117H.grib2 2026-04-24 16:51 2.5M
20260424T12Z_MSC_GDPS_PlanetaryBoundaryLayerHeight_Sfc_LatLon0.15_PT117H.grib2 2026-04-24 16:27 2.5M
20260424T12Z_MSC_GDPS_Precip-Accum1h_Sfc_LatLon0.15_PT117H.grib2 2026-04-24 16:27 3.3M
20260424T12Z_MSC_GDPS_Precip-Accum3h_Sfc_LatLon0.15_PT117H.grib2 2026-04-24 16:27 3.6M
20260424T12Z_MSC_GDPS_Precip-Accum_Sfc_LatLon0.15_PT117H.grib2 2026-04-24 16:27 5.1M
20260424T12Z_MSC_GDPS_PrecipRate_Sfc_LatLon0.15_PT117H.grib2 2026-04-24 16:27 3.2M
20260424T12Z_MSC_GDPS_PrecipType-Instant_Sfc_LatLon0.15_PT117H.grib2 2026-04-24 16:27 1.6M
20260424T12Z_MSC_GDPS_Pressure_MSL_LatLon0.15_PT117H.grib2 2026-04-24 16:27 722K
20260424T12Z_MSC_GDPS_Pressure_PVU-1.5_LatLon0.15_PT117H.grib2 2026-04-24 16:27 5.8M
20260424T12Z_MSC_GDPS_Pressure_PVU-1_LatLon0.15_PT117H.grib2 2026-04-24 16:27 6.0M
20260424T12Z_MSC_GDPS_Pressure_PVU-2_LatLon0.15_PT117H.grib2 2026-04-24 16:27 6.0M
20260424T12Z_MSC_GDPS_Pressure_Sfc_LatLon0.15_PT117H.grib2 2026-04-24 16:27 1.1M
20260424T12Z_MSC_GDPS_RadiativeTemp_Sfc_LatLon0.15_PT117H.grib2 2026-04-24 16:27 502K
20260424T12Z_MSC_GDPS_Rain-Accum1h_Sfc_LatLon0.15_PT117H.grib2 2026-04-24 16:27 1.7M
20260424T12Z_MSC_GDPS_Rain-Accum3h_Sfc_LatLon0.15_PT117H.grib2 2026-04-24 16:27 1.7M
20260424T12Z_MSC_GDPS_Rain-Accum_Sfc_LatLon0.15_PT117H.grib2 2026-04-24 16:27 4.0M
20260424T12Z_MSC_GDPS_RelativeHumidity_AGL-2m_LatLon0.15_PT117H.grib2 2026-04-24 16:27 1.1M
20260424T12Z_MSC_GDPS_RelativeHumidity_IsbL-0010_LatLon0.15_PT117H.grib2 2026-04-24 16:27 256K
20260424T12Z_MSC_GDPS_RelativeHumidity_IsbL-0020_LatLon0.15_PT117H.grib2 2026-04-24 16:27 265K
20260424T12Z_MSC_GDPS_RelativeHumidity_IsbL-0030_LatLon0.15_PT117H.grib2 2026-04-24 16:27 257K
20260424T12Z_MSC_GDPS_RelativeHumidity_IsbL-0050_LatLon0.15_PT117H.grib2 2026-04-24 16:27 410K
20260424T12Z_MSC_GDPS_RelativeHumidity_IsbL-0100_LatLon0.15_PT117H.grib2 2026-04-24 16:27 495K
20260424T12Z_MSC_GDPS_RelativeHumidity_IsbL-0150_LatLon0.15_PT117H.grib2 2026-04-24 16:27 659K
20260424T12Z_MSC_GDPS_RelativeHumidity_IsbL-0175_LatLon0.15_PT117H.grib2 2026-04-24 16:27 589K
20260424T12Z_MSC_GDPS_RelativeHumidity_IsbL-0200_LatLon0.15_PT117H.grib2 2026-04-24 16:27 697K
20260424T12Z_MSC_GDPS_RelativeHumidity_IsbL-0225_LatLon0.15_PT117H.grib2 2026-04-24 16:27 783K
20260424T12Z_MSC_GDPS_RelativeHumidity_IsbL-0250_LatLon0.15_PT117H.grib2 2026-04-24 16:27 856K
20260424T12Z_MSC_GDPS_RelativeHumidity_IsbL-0275_LatLon0.15_PT117H.grib2 2026-04-24 16:27 878K
20260424T12Z_MSC_GDPS_RelativeHumidity_IsbL-0300_LatLon0.15_PT117H.grib2 2026-04-24 16:27 920K
20260424T12Z_MSC_GDPS_RelativeHumidity_IsbL-0350_LatLon0.15_PT117H.grib2 2026-04-24 16:27 942K
20260424T12Z_MSC_GDPS_RelativeHumidity_IsbL-0400_LatLon0.15_PT117H.grib2 2026-04-24 16:27 967K
20260424T12Z_MSC_GDPS_RelativeHumidity_IsbL-0450_LatLon0.15_PT117H.grib2 2026-04-24 16:27 1.0M
20260424T12Z_MSC_GDPS_RelativeHumidity_IsbL-0500_LatLon0.15_PT117H.grib2 2026-04-24 16:27 1.0M
20260424T12Z_MSC_GDPS_RelativeHumidity_IsbL-0550_LatLon0.15_PT117H.grib2 2026-04-24 16:27 1.0M
20260424T12Z_MSC_GDPS_RelativeHumidity_IsbL-0600_LatLon0.15_PT117H.grib2 2026-04-24 16:27 1.0M
20260424T12Z_MSC_GDPS_RelativeHumidity_IsbL-0650_LatLon0.15_PT117H.grib2 2026-04-24 16:27 1.1M
20260424T12Z_MSC_GDPS_RelativeHumidity_IsbL-0700_LatLon0.15_PT117H.grib2 2026-04-24 16:27 1.1M
20260424T12Z_MSC_GDPS_RelativeHumidity_IsbL-0750_LatLon0.15_PT117H.grib2 2026-04-24 16:27 1.2M
20260424T12Z_MSC_GDPS_RelativeHumidity_IsbL-0800_LatLon0.15_PT117H.grib2 2026-04-24 16:27 1.3M
20260424T12Z_MSC_GDPS_RelativeHumidity_IsbL-0850_LatLon0.15_PT117H.grib2 2026-04-24 16:27 1.3M
20260424T12Z_MSC_GDPS_RelativeHumidity_IsbL-0875_LatLon0.15_PT117H.grib2 2026-04-24 16:27 1.3M
20260424T12Z_MSC_GDPS_RelativeHumidity_IsbL-0900_LatLon0.15_PT117H.grib2 2026-04-24 16:27 1.2M
20260424T12Z_MSC_GDPS_RelativeHumidity_IsbL-0925_LatLon0.15_PT117H.grib2 2026-04-24 16:27 1.2M
20260424T12Z_MSC_GDPS_RelativeHumidity_IsbL-0950_LatLon0.15_PT117H.grib2 2026-04-24 16:27 1.2M
20260424T12Z_MSC_GDPS_RelativeHumidity_IsbL-0970_LatLon0.15_PT117H.grib2 2026-04-24 16:27 1.2M
20260424T12Z_MSC_GDPS_RelativeHumidity_IsbL-0985_LatLon0.15_PT117H.grib2 2026-04-24 16:27 1.2M
20260424T12Z_MSC_GDPS_RelativeHumidity_IsbL-1000_LatLon0.15_PT117H.grib2 2026-04-24 16:27 1.1M
20260424T12Z_MSC_GDPS_RelativeHumidity_IsbL-1015_LatLon0.15_PT117H.grib2 2026-04-24 16:27 1.0M
20260424T12Z_MSC_GDPS_RelativeVorticity_IsbL-0200_LatLon0.15_PT117H.grib2 2026-04-24 16:27 1.5M
20260424T12Z_MSC_GDPS_RelativeVorticity_IsbL-0250_LatLon0.15_PT117H.grib2 2026-04-24 16:27 1.5M
20260424T12Z_MSC_GDPS_RelativeVorticity_IsbL-0500_LatLon0.15_PT117H.grib2 2026-04-24 16:27 1.4M
20260424T12Z_MSC_GDPS_RelativeVorticity_IsbL-0700_LatLon0.15_PT117H.grib2 2026-04-24 16:27 1.6M
20260424T12Z_MSC_GDPS_RelativeVorticity_IsbL-0850_LatLon0.15_PT117H.grib2 2026-04-24 16:27 1.6M
20260424T12Z_MSC_GDPS_Runoff-Accum_Sfc_LatLon0.15_PT117H.grib2 2026-04-24 16:27 137K
20260424T12Z_MSC_GDPS_SensibleHeatNetFlux_Sfc_LatLon0.15_PT117H.grib2 2026-04-24 16:27 660K
20260424T12Z_MSC_GDPS_ShowalterIndex_IsbL-0500_LatLon0.15_PT117H.grib2 2026-04-24 16:27 6.2M
20260424T12Z_MSC_GDPS_Snow-Accum1h_Sfc_LatLon0.15_PT117H.grib2 2026-04-24 16:27 1.1M
20260424T12Z_MSC_GDPS_Snow-Accum3h_Sfc_LatLon0.15_PT117H.grib2 2026-04-24 16:27 1.1M
20260424T12Z_MSC_GDPS_Snow-Accum_Sfc_LatLon0.15_PT117H.grib2 2026-04-24 16:27 2.1M
20260424T12Z_MSC_GDPS_SnowDensity_Sfc_LatLon0.15_PT117H.grib2 2026-04-24 16:27 273K
20260424T12Z_MSC_GDPS_SnowDepth_Sfc_LatLon0.15_PT117H.grib2 2026-04-24 16:27 1.8M
20260424T12Z_MSC_GDPS_SoilTemp_DBS-0to10cm_LatLon0.15_PT117H.grib2 2026-04-24 16:27 508K
20260424T12Z_MSC_GDPS_SoilTemp_Sfc_LatLon0.15_PT117H.grib2 2026-04-24 16:27 582K
20260424T12Z_MSC_GDPS_SoilVolumetricIceContent_Sfc_LatLon0.15_PT117H.grib2 2026-04-24 16:27 211K
20260424T12Z_MSC_GDPS_SoilVolumetricWaterContent_DBS-0to10cm_LatLon0.15_PT117H.grib2 2026-04-24 16:27 580K
20260424T12Z_MSC_GDPS_SoilVolumetricWaterContent_DBS-0to1cm_LatLon0.15_PT117H.grib2 2026-04-24 16:27 650K
20260424T12Z_MSC_GDPS_SpecificHumidity_AGL-120m_LatLon0.15_PT117H.grib2 2026-04-24 16:27 1.1M
20260424T12Z_MSC_GDPS_SpecificHumidity_AGL-2m_LatLon0.15_PT117H.grib2 2026-04-24 16:27 1.2M
20260424T12Z_MSC_GDPS_SpecificHumidity_AGL-40m_LatLon0.15_PT117H.grib2 2026-04-24 16:27 1.1M
20260424T12Z_MSC_GDPS_SpecificHumidity_AGL-80m_LatLon0.15_PT117H.grib2 2026-04-24 16:27 1.1M
20260424T12Z_MSC_GDPS_SpecificHumidity_IsbL-0001_LatLon0.15_PT117H.grib2 2026-04-24 16:27 1.2M
20260424T12Z_MSC_GDPS_SpecificHumidity_IsbL-0005_LatLon0.15_PT117H.grib2 2026-04-24 16:27 1.4M
20260424T12Z_MSC_GDPS_SpecificHumidity_IsbL-0010_LatLon0.15_PT117H.grib2 2026-04-24 16:27 1.2M
20260424T12Z_MSC_GDPS_SpecificHumidity_IsbL-0020_LatLon0.15_PT117H.grib2 2026-04-24 16:27 1.3M
20260424T12Z_MSC_GDPS_SpecificHumidity_IsbL-0030_LatLon0.15_PT117H.grib2 2026-04-24 16:27 1.6M
20260424T12Z_MSC_GDPS_SpecificHumidity_IsbL-0050_LatLon0.15_PT117H.grib2 2026-04-24 16:27 1.3M
20260424T12Z_MSC_GDPS_SpecificHumidity_IsbL-0100_LatLon0.15_PT117H.grib2 2026-04-24 16:27 1.3M
20260424T12Z_MSC_GDPS_SpecificHumidity_IsbL-0150_LatLon0.15_PT117H.grib2 2026-04-24 16:27 1.2M
20260424T12Z_MSC_GDPS_SpecificHumidity_IsbL-0175_LatLon0.15_PT117H.grib2 2026-04-24 16:27 1.3M
20260424T12Z_MSC_GDPS_SpecificHumidity_IsbL-0200_LatLon0.15_PT117H.grib2 2026-04-24 16:27 1.3M
20260424T12Z_MSC_GDPS_SpecificHumidity_IsbL-0225_LatLon0.15_PT117H.grib2 2026-04-24 16:27 1.3M
20260424T12Z_MSC_GDPS_SpecificHumidity_IsbL-0250_LatLon0.15_PT117H.grib2 2026-04-24 16:27 1.4M
20260424T12Z_MSC_GDPS_SpecificHumidity_IsbL-0275_LatLon0.15_PT117H.grib2 2026-04-24 16:27 1.3M
20260424T12Z_MSC_GDPS_SpecificHumidity_IsbL-0300_LatLon0.15_PT117H.grib2 2026-04-24 16:27 1.5M
20260424T12Z_MSC_GDPS_SpecificHumidity_IsbL-0350_LatLon0.15_PT117H.grib2 2026-04-24 16:27 1.5M
20260424T12Z_MSC_GDPS_SpecificHumidity_IsbL-0400_LatLon0.15_PT117H.grib2 2026-04-24 16:27 1.4M
20260424T12Z_MSC_GDPS_SpecificHumidity_IsbL-0450_LatLon0.15_PT117H.grib2 2026-04-24 16:27 1.6M
20260424T12Z_MSC_GDPS_SpecificHumidity_IsbL-0500_LatLon0.15_PT117H.grib2 2026-04-24 16:27 1.4M
20260424T12Z_MSC_GDPS_SpecificHumidity_IsbL-0550_LatLon0.15_PT117H.grib2 2026-04-24 16:27 1.6M
20260424T12Z_MSC_GDPS_SpecificHumidity_IsbL-0600_LatLon0.15_PT117H.grib2 2026-04-24 16:27 1.7M
20260424T12Z_MSC_GDPS_SpecificHumidity_IsbL-0650_LatLon0.15_PT117H.grib2 2026-04-24 16:27 1.5M
20260424T12Z_MSC_GDPS_SpecificHumidity_IsbL-0700_LatLon0.15_PT117H.grib2 2026-04-24 16:27 1.6M
20260424T12Z_MSC_GDPS_SpecificHumidity_IsbL-0750_LatLon0.15_PT117H.grib2 2026-04-24 16:27 1.7M
20260424T12Z_MSC_GDPS_SpecificHumidity_IsbL-0800_LatLon0.15_PT117H.grib2 2026-04-24 16:27 1.8M
20260424T12Z_MSC_GDPS_SpecificHumidity_IsbL-0850_LatLon0.15_PT117H.grib2 2026-04-24 16:27 1.9M
20260424T12Z_MSC_GDPS_SpecificHumidity_IsbL-0875_LatLon0.15_PT117H.grib2 2026-04-24 16:27 1.9M
20260424T12Z_MSC_GDPS_SpecificHumidity_IsbL-0900_LatLon0.15_PT117H.grib2 2026-04-24 16:27 1.6M
20260424T12Z_MSC_GDPS_SpecificHumidity_IsbL-0925_LatLon0.15_PT117H.grib2 2026-04-24 16:27 1.6M
20260424T12Z_MSC_GDPS_SpecificHumidity_IsbL-0950_LatLon0.15_PT117H.grib2 2026-04-24 16:27 1.6M
20260424T12Z_MSC_GDPS_SpecificHumidity_IsbL-0970_LatLon0.15_PT117H.grib2 2026-04-24 16:27 1.5M
20260424T12Z_MSC_GDPS_SpecificHumidity_IsbL-0985_LatLon0.15_PT117H.grib2 2026-04-24 16:27 1.5M
20260424T12Z_MSC_GDPS_SpecificHumidity_IsbL-1000_LatLon0.15_PT117H.grib2 2026-04-24 16:27 1.5M
20260424T12Z_MSC_GDPS_SpecificHumidity_IsbL-1015_LatLon0.15_PT117H.grib2 2026-04-24 16:27 1.4M
20260424T12Z_MSC_GDPS_SpecificHumidity_Sfc_LatLon0.15_PT117H.grib2 2026-04-24 16:27 676K
20260424T12Z_MSC_GDPS_Thickness_IsbL-0850to0700_LatLon0.15_PT117H.grib2 2026-04-24 16:27 468K
20260424T12Z_MSC_GDPS_Thickness_IsbL-1000to0500_LatLon0.15_PT117H.grib2 2026-04-24 16:27 376K
20260424T12Z_MSC_GDPS_Thickness_IsbL-1000to0850_LatLon0.15_PT117H.grib2 2026-04-24 16:27 491K
20260424T12Z_MSC_GDPS_TotalCloudCover_Sfc_LatLon0.15_PT117H.grib2 2026-04-24 16:27 836K
20260424T12Z_MSC_GDPS_TotalTotalsIndex_Sfc_LatLon0.15_PT117H.grib2 2026-04-24 16:27 6.2M
20260424T12Z_MSC_GDPS_UVIndex-ClearSky_Sfc_LatLon0.15_PT117H.grib2 2026-04-24 16:51 1.1M
20260424T12Z_MSC_GDPS_UVIndex_Sfc_LatLon0.15_PT117H.grib2 2026-04-24 16:51 1.5M
20260424T12Z_MSC_GDPS_UpwardLongwaveRadiationFlux_NTAtm_LatLon0.15_PT117H.grib2 2026-04-24 16:27 841K
20260424T12Z_MSC_GDPS_VerticalVelocity_IsbL-0200_LatLon0.15_PT117H.grib2 2026-04-24 16:27 1.1M
20260424T12Z_MSC_GDPS_VerticalVelocity_IsbL-0250_LatLon0.15_PT117H.grib2 2026-04-24 16:27 1.0M
20260424T12Z_MSC_GDPS_VerticalVelocity_IsbL-0500_LatLon0.15_PT117H.grib2 2026-04-24 16:27 1.0M
20260424T12Z_MSC_GDPS_VerticalVelocity_IsbL-0600_LatLon0.15_PT117H.grib2 2026-04-24 16:27 1.0M
20260424T12Z_MSC_GDPS_VerticalVelocity_IsbL-0700_LatLon0.15_PT117H.grib2 2026-04-24 16:27 1.1M
20260424T12Z_MSC_GDPS_VerticalVelocity_IsbL-0850_LatLon0.15_PT117H.grib2 2026-04-24 16:27 1.3M
20260424T12Z_MSC_GDPS_WindChill_Sfc_LatLon0.15_PT117H.grib2 2026-04-24 16:27 5.3M
20260424T12Z_MSC_GDPS_WindDir_AGL-10m_LatLon0.15_PT117H.grib2 2026-04-24 16:27 1.3M
20260424T12Z_MSC_GDPS_WindDir_AGL-120m_LatLon0.15_PT117H.grib2 2026-04-24 16:27 1.4M
20260424T12Z_MSC_GDPS_WindDir_AGL-40m_LatLon0.15_PT117H.grib2 2026-04-24 16:27 1.4M
20260424T12Z_MSC_GDPS_WindDir_AGL-80m_LatLon0.15_PT117H.grib2 2026-04-24 16:27 1.4M
20260424T12Z_MSC_GDPS_WindDir_IsbL-0001_LatLon0.15_PT117H.grib2 2026-04-24 16:27 665K
20260424T12Z_MSC_GDPS_WindDir_IsbL-0005_LatLon0.15_PT117H.grib2 2026-04-24 16:27 774K
20260424T12Z_MSC_GDPS_WindDir_IsbL-0010_LatLon0.15_PT117H.grib2 2026-04-24 16:27 830K
20260424T12Z_MSC_GDPS_WindDir_IsbL-0020_LatLon0.15_PT117H.grib2 2026-04-24 16:27 915K
20260424T12Z_MSC_GDPS_WindDir_IsbL-0030_LatLon0.15_PT117H.grib2 2026-04-24 16:27 910K
20260424T12Z_MSC_GDPS_WindDir_IsbL-0050_LatLon0.15_PT117H.grib2 2026-04-24 16:27 932K
20260424T12Z_MSC_GDPS_WindDir_IsbL-0100_LatLon0.15_PT117H.grib2 2026-04-24 16:27 1.0M
20260424T12Z_MSC_GDPS_WindDir_IsbL-0150_LatLon0.15_PT117H.grib2 2026-04-24 16:27 1.0M
20260424T12Z_MSC_GDPS_WindDir_IsbL-0175_LatLon0.15_PT117H.grib2 2026-04-24 16:27 1.0M
20260424T12Z_MSC_GDPS_WindDir_IsbL-0200_LatLon0.15_PT117H.grib2 2026-04-24 16:27 1.1M
20260424T12Z_MSC_GDPS_WindDir_IsbL-0225_LatLon0.15_PT117H.grib2 2026-04-24 16:27 1.1M
20260424T12Z_MSC_GDPS_WindDir_IsbL-0250_LatLon0.15_PT117H.grib2 2026-04-24 16:27 1.1M
20260424T12Z_MSC_GDPS_WindDir_IsbL-0275_LatLon0.15_PT117H.grib2 2026-04-24 16:27 1.1M
20260424T12Z_MSC_GDPS_WindDir_IsbL-0300_LatLon0.15_PT117H.grib2 2026-04-24 16:27 1.1M
20260424T12Z_MSC_GDPS_WindDir_IsbL-0350_LatLon0.15_PT117H.grib2 2026-04-24 16:27 1.2M
20260424T12Z_MSC_GDPS_WindDir_IsbL-0400_LatLon0.15_PT117H.grib2 2026-04-24 16:27 1.2M
20260424T12Z_MSC_GDPS_WindDir_IsbL-0450_LatLon0.15_PT117H.grib2 2026-04-24 16:27 1.3M
20260424T12Z_MSC_GDPS_WindDir_IsbL-0500_LatLon0.15_PT117H.grib2 2026-04-24 16:27 1.3M
20260424T12Z_MSC_GDPS_WindDir_IsbL-0550_LatLon0.15_PT117H.grib2 2026-04-24 16:27 1.4M
20260424T12Z_MSC_GDPS_WindDir_IsbL-0600_LatLon0.15_PT117H.grib2 2026-04-24 16:27 1.4M
20260424T12Z_MSC_GDPS_WindDir_IsbL-0650_LatLon0.15_PT117H.grib2 2026-04-24 16:27 1.5M
20260424T12Z_MSC_GDPS_WindDir_IsbL-0700_LatLon0.15_PT117H.grib2 2026-04-24 16:27 1.6M
20260424T12Z_MSC_GDPS_WindDir_IsbL-0750_LatLon0.15_PT117H.grib2 2026-04-24 16:27 1.7M
20260424T12Z_MSC_GDPS_WindDir_IsbL-0800_LatLon0.15_PT117H.grib2 2026-04-24 16:27 1.8M
20260424T12Z_MSC_GDPS_WindDir_IsbL-0850_LatLon0.15_PT117H.grib2 2026-04-24 16:27 1.9M
20260424T12Z_MSC_GDPS_WindDir_IsbL-0875_LatLon0.15_PT117H.grib2 2026-04-24 16:27 1.9M
20260424T12Z_MSC_GDPS_WindDir_IsbL-0900_LatLon0.15_PT117H.grib2 2026-04-24 16:27 2.0M
20260424T12Z_MSC_GDPS_WindDir_IsbL-0925_LatLon0.15_PT117H.grib2 2026-04-24 16:27 2.0M
20260424T12Z_MSC_GDPS_WindDir_IsbL-0950_LatLon0.15_PT117H.grib2 2026-04-24 16:27 2.0M
20260424T12Z_MSC_GDPS_WindDir_IsbL-0970_LatLon0.15_PT117H.grib2 2026-04-24 16:27 2.0M
20260424T12Z_MSC_GDPS_WindDir_IsbL-0985_LatLon0.15_PT117H.grib2 2026-04-24 16:27 2.0M
20260424T12Z_MSC_GDPS_WindDir_IsbL-1000_LatLon0.15_PT117H.grib2 2026-04-24 16:27 2.1M
20260424T12Z_MSC_GDPS_WindDir_IsbL-1015_LatLon0.15_PT117H.grib2 2026-04-24 16:27 2.0M
20260424T12Z_MSC_GDPS_WindGust-Max_AGL-10m_LatLon0.15_PT117H.grib2 2026-04-24 16:27 2.2M
20260424T12Z_MSC_GDPS_WindGust-Min_AGL-10m_LatLon0.15_PT117H.grib2 2026-04-24 16:27 2.2M
20260424T12Z_MSC_GDPS_WindGust_AGL-10m_LatLon0.15_PT117H.grib2 2026-04-24 16:27 2.2M
20260424T12Z_MSC_GDPS_WindSpeed_AGL-10m_LatLon0.15_PT117H.grib2 2026-04-24 16:27 1.1M
20260424T12Z_MSC_GDPS_WindSpeed_AGL-120m_LatLon0.15_PT117H.grib2 2026-04-24 16:27 1.2M
20260424T12Z_MSC_GDPS_WindSpeed_AGL-40m_LatLon0.15_PT117H.grib2 2026-04-24 16:27 1.2M
20260424T12Z_MSC_GDPS_WindSpeed_AGL-80m_LatLon0.15_PT117H.grib2 2026-04-24 16:27 1.2M
20260424T12Z_MSC_GDPS_WindSpeed_IsbL-0001_LatLon0.15_PT117H.grib2 2026-04-24 16:27 636K
20260424T12Z_MSC_GDPS_WindSpeed_IsbL-0005_LatLon0.15_PT117H.grib2 2026-04-24 16:27 685K
20260424T12Z_MSC_GDPS_WindSpeed_IsbL-0010_LatLon0.15_PT117H.grib2 2026-04-24 16:27 619K
20260424T12Z_MSC_GDPS_WindSpeed_IsbL-0020_LatLon0.15_PT117H.grib2 2026-04-24 16:27 655K
20260424T12Z_MSC_GDPS_WindSpeed_IsbL-0030_LatLon0.15_PT117H.grib2 2026-04-24 16:27 849K
20260424T12Z_MSC_GDPS_WindSpeed_IsbL-0050_LatLon0.15_PT117H.grib2 2026-04-24 16:27 894K
20260424T12Z_MSC_GDPS_WindSpeed_IsbL-0100_LatLon0.15_PT117H.grib2 2026-04-24 16:27 1.1M
20260424T12Z_MSC_GDPS_WindSpeed_IsbL-0150_LatLon0.15_PT117H.grib2 2026-04-24 16:27 1.0M
20260424T12Z_MSC_GDPS_WindSpeed_IsbL-0175_LatLon0.15_PT117H.grib2 2026-04-24 16:27 1.0M
20260424T12Z_MSC_GDPS_WindSpeed_IsbL-0200_LatLon0.15_PT117H.grib2 2026-04-24 16:27 1.1M
20260424T12Z_MSC_GDPS_WindSpeed_IsbL-0225_LatLon0.15_PT117H.grib2 2026-04-24 16:27 1.1M
20260424T12Z_MSC_GDPS_WindSpeed_IsbL-0250_LatLon0.15_PT117H.grib2 2026-04-24 16:27 1.1M
20260424T12Z_MSC_GDPS_WindSpeed_IsbL-0275_LatLon0.15_PT117H.grib2 2026-04-24 16:27 1.1M
20260424T12Z_MSC_GDPS_WindSpeed_IsbL-0300_LatLon0.15_PT117H.grib2 2026-04-24 16:27 1.1M
20260424T12Z_MSC_GDPS_WindSpeed_IsbL-0350_LatLon0.15_PT117H.grib2 2026-04-24 16:27 1.1M
20260424T12Z_MSC_GDPS_WindSpeed_IsbL-0400_LatLon0.15_PT117H.grib2 2026-04-24 16:27 1.1M
20260424T12Z_MSC_GDPS_WindSpeed_IsbL-0450_LatLon0.15_PT117H.grib2 2026-04-24 16:27 1.1M
20260424T12Z_MSC_GDPS_WindSpeed_IsbL-0500_LatLon0.15_PT117H.grib2 2026-04-24 16:27 1.1M
20260424T12Z_MSC_GDPS_WindSpeed_IsbL-0550_LatLon0.15_PT117H.grib2 2026-04-24 16:27 1.1M
20260424T12Z_MSC_GDPS_WindSpeed_IsbL-0600_LatLon0.15_PT117H.grib2 2026-04-24 16:27 1.1M
20260424T12Z_MSC_GDPS_WindSpeed_IsbL-0650_LatLon0.15_PT117H.grib2 2026-04-24 16:27 1.4M
20260424T12Z_MSC_GDPS_WindSpeed_IsbL-0700_LatLon0.15_PT117H.grib2 2026-04-24 16:27 1.5M
20260424T12Z_MSC_GDPS_WindSpeed_IsbL-0750_LatLon0.15_PT117H.grib2 2026-04-24 16:27 1.5M
20260424T12Z_MSC_GDPS_WindSpeed_IsbL-0800_LatLon0.15_PT117H.grib2 2026-04-24 16:27 1.6M
20260424T12Z_MSC_GDPS_WindSpeed_IsbL-0850_LatLon0.15_PT117H.grib2 2026-04-24 16:27 1.7M
20260424T12Z_MSC_GDPS_WindSpeed_IsbL-0875_LatLon0.15_PT117H.grib2 2026-04-24 16:27 1.8M
20260424T12Z_MSC_GDPS_WindSpeed_IsbL-0900_LatLon0.15_PT117H.grib2 2026-04-24 16:27 1.8M
20260424T12Z_MSC_GDPS_WindSpeed_IsbL-0925_LatLon0.15_PT117H.grib2 2026-04-24 16:27 1.8M
20260424T12Z_MSC_GDPS_WindSpeed_IsbL-0950_LatLon0.15_PT117H.grib2 2026-04-24 16:27 1.9M
20260424T12Z_MSC_GDPS_WindSpeed_IsbL-0970_LatLon0.15_PT117H.grib2 2026-04-24 16:27 1.9M
20260424T12Z_MSC_GDPS_WindSpeed_IsbL-0985_LatLon0.15_PT117H.grib2 2026-04-24 16:27 1.9M
20260424T12Z_MSC_GDPS_WindSpeed_IsbL-1000_LatLon0.15_PT117H.grib2 2026-04-24 16:27 1.8M
20260424T12Z_MSC_GDPS_WindSpeed_IsbL-1015_LatLon0.15_PT117H.grib2 2026-04-24 16:27 1.8M
20260424T12Z_MSC_GDPS_WindU_AGL-10m_LatLon0.15_PT117H.grib2 2026-04-24 16:27 1.3M
20260424T12Z_MSC_GDPS_WindU_AGL-120m_LatLon0.15_PT117H.grib2 2026-04-24 16:27 968K
20260424T12Z_MSC_GDPS_WindU_AGL-40m_LatLon0.15_PT117H.grib2 2026-04-24 16:27 966K
20260424T12Z_MSC_GDPS_WindU_AGL-80m_LatLon0.15_PT117H.grib2 2026-04-24 16:27 969K
20260424T12Z_MSC_GDPS_WindU_IsbL-0001_LatLon0.15_PT117H.grib2 2026-04-24 16:27 495K
20260424T12Z_MSC_GDPS_WindU_IsbL-0005_LatLon0.15_PT117H.grib2 2026-04-24 16:27 685K
20260424T12Z_MSC_GDPS_WindU_IsbL-0010_LatLon0.15_PT117H.grib2 2026-04-24 16:27 696K
20260424T12Z_MSC_GDPS_WindU_IsbL-0020_LatLon0.15_PT117H.grib2 2026-04-24 16:27 726K
20260424T12Z_MSC_GDPS_WindU_IsbL-0030_LatLon0.15_PT117H.grib2 2026-04-24 16:27 729K
20260424T12Z_MSC_GDPS_WindU_IsbL-0050_LatLon0.15_PT117H.grib2 2026-04-24 16:27 690K
20260424T12Z_MSC_GDPS_WindU_IsbL-0100_LatLon0.15_PT117H.grib2 2026-04-24 16:27 914K
20260424T12Z_MSC_GDPS_WindU_IsbL-0150_LatLon0.15_PT117H.grib2 2026-04-24 16:27 1.0M
20260424T12Z_MSC_GDPS_WindU_IsbL-0175_LatLon0.15_PT117H.grib2 2026-04-24 16:27 1.0M
20260424T12Z_MSC_GDPS_WindU_IsbL-0200_LatLon0.15_PT117H.grib2 2026-04-24 16:27 841K
20260424T12Z_MSC_GDPS_WindU_IsbL-0225_LatLon0.15_PT117H.grib2 2026-04-24 16:27 851K
20260424T12Z_MSC_GDPS_WindU_IsbL-0250_LatLon0.15_PT117H.grib2 2026-04-24 16:27 851K
20260424T12Z_MSC_GDPS_WindU_IsbL-0275_LatLon0.15_PT117H.grib2 2026-04-24 16:27 875K
20260424T12Z_MSC_GDPS_WindU_IsbL-0300_LatLon0.15_PT117H.grib2 2026-04-24 16:27 865K
20260424T12Z_MSC_GDPS_WindU_IsbL-0350_LatLon0.15_PT117H.grib2 2026-04-24 16:27 878K
20260424T12Z_MSC_GDPS_WindU_IsbL-0400_LatLon0.15_PT117H.grib2 2026-04-24 16:27 881K
20260424T12Z_MSC_GDPS_WindU_IsbL-0450_LatLon0.15_PT117H.grib2 2026-04-24 16:27 1.1M
20260424T12Z_MSC_GDPS_WindU_IsbL-0500_LatLon0.15_PT117H.grib2 2026-04-24 16:27 1.1M
20260424T12Z_MSC_GDPS_WindU_IsbL-0550_LatLon0.15_PT117H.grib2 2026-04-24 16:27 1.1M
20260424T12Z_MSC_GDPS_WindU_IsbL-0600_LatLon0.15_PT117H.grib2 2026-04-24 16:27 1.1M
20260424T12Z_MSC_GDPS_WindU_IsbL-0650_LatLon0.15_PT117H.grib2 2026-04-24 16:27 1.2M
20260424T12Z_MSC_GDPS_WindU_IsbL-0700_LatLon0.15_PT117H.grib2 2026-04-24 16:27 1.2M
20260424T12Z_MSC_GDPS_WindU_IsbL-0750_LatLon0.15_PT117H.grib2 2026-04-24 16:27 1.2M
20260424T12Z_MSC_GDPS_WindU_IsbL-0800_LatLon0.15_PT117H.grib2 2026-04-24 16:27 1.3M
20260424T12Z_MSC_GDPS_WindU_IsbL-0850_LatLon0.15_PT117H.grib2 2026-04-24 16:27 1.4M
20260424T12Z_MSC_GDPS_WindU_IsbL-0875_LatLon0.15_PT117H.grib2 2026-04-24 16:27 1.4M
20260424T12Z_MSC_GDPS_WindU_IsbL-0900_LatLon0.15_PT117H.grib2 2026-04-24 16:27 1.5M
20260424T12Z_MSC_GDPS_WindU_IsbL-0925_LatLon0.15_PT117H.grib2 2026-04-24 16:27 1.4M
20260424T12Z_MSC_GDPS_WindU_IsbL-0950_LatLon0.15_PT117H.grib2 2026-04-24 16:27 1.4M
20260424T12Z_MSC_GDPS_WindU_IsbL-0970_LatLon0.15_PT117H.grib2 2026-04-24 16:27 1.4M
20260424T12Z_MSC_GDPS_WindU_IsbL-0985_LatLon0.15_PT117H.grib2 2026-04-24 16:27 1.4M
20260424T12Z_MSC_GDPS_WindU_IsbL-1000_LatLon0.15_PT117H.grib2 2026-04-24 16:27 1.4M
20260424T12Z_MSC_GDPS_WindU_IsbL-1015_LatLon0.15_PT117H.grib2 2026-04-24 16:27 1.3M
20260424T12Z_MSC_GDPS_WindV_AGL-10m_LatLon0.15_PT117H.grib2 2026-04-24 16:27 1.6M
20260424T12Z_MSC_GDPS_WindV_AGL-120m_LatLon0.15_PT117H.grib2 2026-04-24 16:27 970K
20260424T12Z_MSC_GDPS_WindV_AGL-40m_LatLon0.15_PT117H.grib2 2026-04-24 16:27 966K
20260424T12Z_MSC_GDPS_WindV_AGL-80m_LatLon0.15_PT117H.grib2 2026-04-24 16:27 971K
20260424T12Z_MSC_GDPS_WindV_IsbL-0001_LatLon0.15_PT117H.grib2 2026-04-24 16:27 701K
20260424T12Z_MSC_GDPS_WindV_IsbL-0005_LatLon0.15_PT117H.grib2 2026-04-24 16:27 847K
20260424T12Z_MSC_GDPS_WindV_IsbL-0010_LatLon0.15_PT117H.grib2 2026-04-24 16:27 781K
20260424T12Z_MSC_GDPS_WindV_IsbL-0020_LatLon0.15_PT117H.grib2 2026-04-24 16:27 837K
20260424T12Z_MSC_GDPS_WindV_IsbL-0030_LatLon0.15_PT117H.grib2 2026-04-24 16:27 839K
20260424T12Z_MSC_GDPS_WindV_IsbL-0050_LatLon0.15_PT117H.grib2 2026-04-24 16:27 893K
20260424T12Z_MSC_GDPS_WindV_IsbL-0100_LatLon0.15_PT117H.grib2 2026-04-24 16:27 1.0M
20260424T12Z_MSC_GDPS_WindV_IsbL-0150_LatLon0.15_PT117H.grib2 2026-04-24 16:27 1.0M
20260424T12Z_MSC_GDPS_WindV_IsbL-0175_LatLon0.15_PT117H.grib2 2026-04-24 16:27 1.0M
20260424T12Z_MSC_GDPS_WindV_IsbL-0200_LatLon0.15_PT117H.grib2 2026-04-24 16:27 841K
20260424T12Z_MSC_GDPS_WindV_IsbL-0225_LatLon0.15_PT117H.grib2 2026-04-24 16:27 908K
20260424T12Z_MSC_GDPS_WindV_IsbL-0250_LatLon0.15_PT117H.grib2 2026-04-24 16:27 907K
20260424T12Z_MSC_GDPS_WindV_IsbL-0275_LatLon0.15_PT117H.grib2 2026-04-24 16:27 928K
20260424T12Z_MSC_GDPS_WindV_IsbL-0300_LatLon0.15_PT117H.grib2 2026-04-24 16:27 917K
20260424T12Z_MSC_GDPS_WindV_IsbL-0350_LatLon0.15_PT117H.grib2 2026-04-24 16:27 867K
20260424T12Z_MSC_GDPS_WindV_IsbL-0400_LatLon0.15_PT117H.grib2 2026-04-24 16:27 869K
20260424T12Z_MSC_GDPS_WindV_IsbL-0450_LatLon0.15_PT117H.grib2 2026-04-24 16:27 1.1M
20260424T12Z_MSC_GDPS_WindV_IsbL-0500_LatLon0.15_PT117H.grib2 2026-04-24 16:27 1.1M
20260424T12Z_MSC_GDPS_WindV_IsbL-0550_LatLon0.15_PT117H.grib2 2026-04-24 16:27 1.1M
20260424T12Z_MSC_GDPS_WindV_IsbL-0600_LatLon0.15_PT117H.grib2 2026-04-24 16:27 1.1M
20260424T12Z_MSC_GDPS_WindV_IsbL-0650_LatLon0.15_PT117H.grib2 2026-04-24 16:27 1.2M
20260424T12Z_MSC_GDPS_WindV_IsbL-0700_LatLon0.15_PT117H.grib2 2026-04-24 16:27 1.2M
20260424T12Z_MSC_GDPS_WindV_IsbL-0750_LatLon0.15_PT117H.grib2 2026-04-24 16:27 1.2M
20260424T12Z_MSC_GDPS_WindV_IsbL-0800_LatLon0.15_PT117H.grib2 2026-04-24 16:27 1.3M
20260424T12Z_MSC_GDPS_WindV_IsbL-0850_LatLon0.15_PT117H.grib2 2026-04-24 16:27 1.4M
20260424T12Z_MSC_GDPS_WindV_IsbL-0875_LatLon0.15_PT117H.grib2 2026-04-24 16:27 1.4M
20260424T12Z_MSC_GDPS_WindV_IsbL-0900_LatLon0.15_PT117H.grib2 2026-04-24 16:27 1.4M
20260424T12Z_MSC_GDPS_WindV_IsbL-0925_LatLon0.15_PT117H.grib2 2026-04-24 16:27 1.4M
20260424T12Z_MSC_GDPS_WindV_IsbL-0950_LatLon0.15_PT117H.grib2 2026-04-24 16:27 1.4M
20260424T12Z_MSC_GDPS_WindV_IsbL-0970_LatLon0.15_PT117H.grib2 2026-04-24 16:27 1.4M
20260424T12Z_MSC_GDPS_WindV_IsbL-0985_LatLon0.15_PT117H.grib2 2026-04-24 16:27 1.4M
20260424T12Z_MSC_GDPS_WindV_IsbL-1000_LatLon0.15_PT117H.grib2 2026-04-24 16:27 1.4M
20260424T12Z_MSC_GDPS_WindV_IsbL-1015_LatLon0.15_PT117H.grib2 2026-04-24 16:27 1.7M